Home > Weather > Geldern > Past weeks

Flag for Germany Weather for the Past 2 Weeks in Geldern, North Rhine-Westphalia, Germany

Now
36 °F

Rain showers. Partly sunny.


Feels Like: 26 °F
Forecast: 37 / 45 °F
Wind: 16 mph from Northwest

Location: Niederrhein

Current Time: Feb 9, 2016 at 7:03:43 PM

Latest Report: Feb 9, 2016 at 6:20 PM


Visibility: 1 mi

Pressure: 28.97 "Hg

Humidity: 93%

Dew point: 34 °F

Location of GeldernLocation

Historic Weather in Geldern — Graph

°F

Geldern Temperature Yesterday

Maximum temperature yesterday: 50 °F (at 10:20 AM)
Minimum temperature yesterday: 45 °F (at 6:50 PM)
Average temperature yesterday: 47 °F

High & Low Weather Summary for the Past Weeks

 TemperatureHumidityPressure
High54 °F (Jan 25, 5:20 PM)100% (Feb 5, 9:50 AM)30.30 "Hg (Feb 5, 9:50 AM)
Low36 °F (Feb 4, 8:50 PM)54% (Jan 25, 7:20 PM)28.82 "Hg (Feb 9, 3:20 PM)
Average47 °F81%29.89 "Hg
* Reported Jan 25 5:20 PM — Feb 9 5:50 PM, Geldern, Weather by CustomWeather, © 2016

Note: Actual official high and low records may vary slightly from our data, if they occured in-between our weather recording intervals... More about our weather records

Advertising

Geldern Weather History for the Previous 24 Hours

 ConditionsComfort  
Time TempWeatherWind HumidityBarometerVisibility
5:50 PM
Tue, Feb 9
37 °FRain. Partly sunny.14 mph93%28.94 "Hg2 mi
5:20 PM37 °FRain. Partly sunny.13 mph93%28.88 "Hg3 mi
4:50 PM39 °FRain. Partly sunny.7 mph93%28.85 "Hg2 mi
4:20 PM39 °FPartly sunny.6 mph93%28.82 "Hg5 mi
3:50 PM39 °FLight rain. Partly sunny.5 mph93%28.82 "Hg5 mi
3:20 PM39 °FLight rain. Broken clouds.6 mph93%28.82 "Hg4 mi
2:50 PM39 °FLight rain. Partly sunny.8 mph93%28.85 "Hg5 mi
2:20 PM39 °FLight rain. Broken clouds.8 mph93%28.91 "Hg4 mi
1:50 PM39 °FRain. Fog.7 mph93%28.97 "Hg3 mi
1:20 PM39 °FRain. Partly sunny.14 mph93%29.03 "Hg3 mi
12:50 PM41 °FLight rain. Partly sunny.8 mph93%29.06 "Hg4 mi
12:20 PM43 °FRain. Partly sunny.9 mph87%29.12 "Hg3 mi
11:20 AM45 °FLight rain. Partly sunny.8 mph81%29.21 "Hg6 mi
10:50 AM45 °FLight rain. Broken clouds.10 mph81%29.24 "HgN/A
10:20 AM45 °FPassing clouds.8 mph76%29.27 "HgN/A
9:50 AM45 °FScattered clouds.9 mph76%29.30 "HgN/A
8:50 AM45 °FPassing clouds.14 mph76%29.33 "HgN/A
8:20 AM45 °FPassing clouds.13 mph76%29.36 "HgN/A
7:50 AM43 °FPassing clouds.12 mph81%29.36 "HgN/A
7:20 AM43 °FPassing clouds.12 mph87%29.36 "HgN/A
6:50 AM43 °FPassing clouds.13 mph87%29.39 "HgN/A
6:20 AM43 °FLight rain. Passing clouds.15 mph87%29.39 "HgN/A
5:50 AM43 °FSprinkles. Passing clouds.17 mph81%29.42 "Hg6 mi
5:20 AM45 °FPassing clouds.16 mph76%29.42 "HgN/A
4:50 AM45 °FPassing clouds.17 mph71%29.42 "HgN/A
11:50 PM
Mon, Feb 8
46 °FLight rain. Passing clouds.21 mph76%29.36 "HgN/A
11:20 PM46 °FLight rain. Passing clouds.21 mph82%29.36 "HgN/A
10:50 PM45 °FLight rain. Passing clouds.24 mph87%29.33 "Hg6 mi
10:20 PM46 °FLight rain. Passing clouds.22 mph76%29.33 "HgN/A
9:50 PM45 °FLight rain. Passing clouds.21 mph81%29.30 "HgN/A
9:20 PM45 °FLight rain. Passing clouds.23 mph81%29.30 "Hg1 mi
8:50 PM45 °FLight rain. Passing clouds.25 mph81%29.30 "Hg1 mi
8:20 PM46 °FLight rain. Passing clouds.22 mph76%29.27 "Hg2 mi
7:50 PM45 °FLight rain. Passing clouds.26 mph81%29.27 "Hg1 mi
7:20 PM46 °FRain showers. Passing clouds.22 mph76%29.27 "Hg2 mi
Weather by CustomWeather, © 2016

See weather overviewHow to use our weather pages